[Date Prev][Date Next][Thread Prev][Thread Next] - [Date Index][Thread Index][Author Index]

2 Line ISS Keps 5-8



ISS
1 25544U 98067A   03128.03549769  .00021041  00000-0  26985-3 0  9842
2 25544  51.6317 221.9944 0006466  91.3314 263.2303 15.59084923254735


----
Via the sarex mailing list at AMSAT.ORG courtesy of AMSAT-NA.
To unsubscribe, send "unsubscribe sarex" to Majordomo@amsat.org



AMSAT Top AMSAT Home